Flag for Cameroon Weather past 2 weeks in Bamenda, Cameroon

Now
82 °F

Partly sunny.


Feels Like: 89 °F
Forecast: 64 / 73 °F
Wind: 14 mph from West

Location: Douala Obs.

Current Time: Oct 2, 2014 at 5:55:33 PM

Latest Report: Oct 2, 2014 at 5:00 PM


Visibility: N/A

Pressure: 29.86 "Hg

Humidity: 79%

Dew point: 75 °F

Location of BamendaLocation

Historic Weather in Bamenda — Graph

°F

Bamenda temperature yesterday

Maximum temperature yesterday: 88 °F (at 1:00 PM)
Minimum temperature yesterday: 75 °F (at 12:00 AM)
Average temperature yesterday: 79 °F

Past Weeks' High & Low Weather Summary

 TemperatureHumidityPressure
High88 °F (Sep 23, 2:00 PM)100% (Sep 19, 4:00 AM)30.01 "Hg (Sep 19, 4:00 AM)
Low73 °F (Sep 21, 8:00 AM)62% (Sep 25, 2:00 PM)29.80 "Hg (Sep 23, 4:00 PM)
Average79 °F89%29.91 "Hg
* Reported Sep 17 4:00 PM — Oct 2 4:00 PM, Bamenda, Weather by CustomWeather, © 2014

Note: Actual official high and low records may vary slightly from our data, if they occured in-between our weather recording intervals... More about our weather records

Advertising

Bamenda weather history for previous 24 hours

 ConditionsComfort  
Time TempWeatherWind HumidityBarometerVisibility
4:00 PM
Oct 2
82 °FPartly sunny.9 mph79%29.86 "HgN/A
3:00 PM84 °FPartly sunny.12 mph74%29.86 "HgN/A
2:00 PM84 °FPartly sunny.9 mph79%29.86 "HgN/A
1:00 PM86 °FPartly sunny.5 mph75%29.89 "HgN/A
12:00 PM81 °FThunderstorms. Mostly cloudy.5 mph84%29.98 "HgN/A
11:00 AM81 °FThunderstorms. Mostly cloudy.5 mph84%29.98 "HgN/A
10:00 AM79 °FThunderstorms. Mostly cloudy.5 mph94%29.98 "HgN/A
9:00 AM79 °FThunderstorms. Partly sunny.No wind89%29.98 "HgN/A
8:00 AM77 °FThunderstorms. Low clouds.No wind94%29.98 "Hg5 mi
7:00 AM75 °FThunderstorms. Partly sunny.No wind100%29.95 "Hg5 mi
6:00 AM75 °FThunderstorms. Passing clouds.No wind100%29.92 "Hg4 mi
5:00 AM75 °FThunderstorms. Passing clouds.No wind100%29.92 "Hg5 mi
4:00 AM75 °FThunderstorms. Passing clouds.No wind100%29.92 "Hg5 mi
3:00 AM75 °FThunderstorms. Passing clouds.No wind100%29.92 "HgN/A
2:00 AM77 °FThunderstorms. Passing clouds.No wind94%29.92 "HgN/A
1:00 AM77 °FThunderstorms. Passing clouds.No wind94%29.92 "HgN/A
12:00 AM77 °FThunderstorms. Passing clouds.No wind94%29.95 "HgN/A
11:00 PM
Oct 1
77 °FThunderstorms. Mostly cloudy.No wind94%29.95 "HgN/A
10:00 PM77 °FThunderstorms. Partly cloudy.No wind89%29.95 "HgN/A
9:00 PM77 °FThunderstorms. Partly cloudy.No wind89%29.92 "Hg5 mi
8:00 PM79 °FThunderstorms. Passing clouds.No wind89%29.86 "HgN/A
7:00 PM79 °FThunderstorms. Passing clouds.5 mph89%29.83 "HgN/A
6:00 PM82 °FThunderstorms. Scattered clouds.9 mph79%29.83 "HgN/A
5:00 PM84 °FThunderstorms. Scattered clouds.14 mph74%29.83 "HgN/A
Weather by CustomWeather, © 2014

See weather overviewHow to use our weather pages